Hourly Data Report for June 27, 2021

WESTERN HEAD
NOVA SCOTIA
Current Station Operator: ECCC - MSC

43°59'24.070" N
64°39'51.008" W
10.10 m
8206240
71411
WWE

Download Data

Hourly Data (June 2021)
Hourly Data Report for June 27, 2021
TIME
LST
Temp Definition
°C
Dew Point Definition
°C
Rel Hum Definition
%
Precip. Amount Definition
mm

Wind Dir Definition
10's deg

Wind Spd Definition
km/h
Visibility Definition
km
Stn Press Definition
kPa
Hmdx Definition


Wind Chill Definition


Weather Definition


00:00 14.3 LegendMM LegendMM 0.0 21 18   102.32     LegendNANA
01:00 13.5 LegendMM LegendMM 0.0 20 15   102.30     LegendNANA
02:00 13.1 LegendMM LegendMM 0.0 20 16   102.28     LegendNANA
03:00 12.8 LegendMM LegendMM 0.0 20 13   102.22     LegendNANA
04:00 12.7 LegendMM LegendMM 0.0 20 20   102.17     LegendNANA
05:00 12.5 LegendMM LegendMM 0.0 20 20   102.13     LegendNANA
06:00 12.2 LegendMM LegendMM 0.0 20 20   102.14     LegendNANA
07:00 12.4 LegendMM LegendMM 0.0 21 18   102.13     LegendNANA
08:00 12.7 LegendMM LegendMM 0.0 19 23   102.14     LegendNANA
09:00 12.9 LegendMM LegendMM 0.0 20 23   102.11     LegendNANA
10:00 15.1 LegendMM LegendMM 0.0 20 20   102.10     LegendNANA
11:00 14.8 LegendMM LegendMM 0.0 20 27   102.07     LegendNANA
12:00 15.0 LegendMM LegendMM 0.0 19 32   102.04     LegendNANA
13:00 15.7 LegendMM LegendMM 0.0 19 34   101.99     LegendNANA
14:00 14.5 LegendMM LegendMM 0.0 20 32   101.94     LegendNANA
15:00 14.1 LegendMM LegendMM 0.0 20 35   101.89     LegendNANA
16:00 13.3 13.3 100 0.0 20 28   101.89     LegendNANA
17:00 12.5 LegendMM LegendMM 0.0 20 31   101.83     LegendNANA
18:00 12.1 LegendMM LegendMM 0.0 19 30   101.79     LegendNANA
19:00 11.2 LegendMM LegendMM 0.0 19 32   101.81     LegendNANA
20:00 10.6 LegendMM LegendMM 0.0 19 32   101.78     LegendNANA
21:00 10.5 LegendMM LegendMM 0.0 19 29   101.80     LegendNANA
22:00 10.7 LegendMM LegendMM 0.0 20 28   101.78     LegendNANA
23:00 10.3 LegendMM LegendMM 0.0 20 24   101.75     LegendNANA

Notes on Data Quality.

Legend

  • E = Estimated
  • M = Missing
  • NA = Not Available*
  • [empty] = Indicates an unobserved value
Date modified: